Kake, AK

2:13 PM AKDT on April 29, 2017 (GMT -0800)
Kake

Weather History for PAFE - January, 2013

Change the Weather History Date:

Sunday, January 27, 2013

  Actual Average Record
Temperature  
Mean Temperature 32 °F -  
Max Temperature 35 °F 34 °F 48 °F (2016)
Min Temperature 30 °F 28 °F 6 °F (2004)
Degree Days  
Heating Degree Days 32    
Moisture  
Dew Point 27 °F    
Average Humidity 80    
Maximum Humidity 87    
Minimum Humidity 65    
Precipitation  
Precipitation 0.00 in - - ()
Sea Level Pressure  
Sea Level Pressure 29.77 in    
Wind  
Wind Speed 4 mph (SE)    
Max Wind Speed 8 mph    
Max Gust Speed -    
Visibility 10 miles    
Events      
Averages and records for this station are not official NWS values.
T = Trace of Precipitation, MM = Missing Value Source: NWS Daily Summary

Daily Weather History Graph

Daily Weather History Graph

Search for Another Location

Airport or City:

Trip Planner

Search our weather history database for the weather conditions in past years. The results will help you decide how hot, cold, wet, or windy it might be!

Date:

Astronomy

Jan. 27, 2013 Rise Set
Actual Time 8:03 AM AKST 4:14 PM AKST
Civil Twilight 7:19 AM AKST 4:57 PM AKST
Nautical Twilight 6:32 AM AKST 5:44 PM AKST
Astronomical Twilight 5:48 AM AKST 6:29 PM AKST
Moon 5:39 PM AKST (1/27) 7:40 AM AKST (1/27)
Length of Visible Light 9h 38m
Length of Day
8h 11m
Full, 100% of the Moon is Illuminated
Jan 27
Full
Feb 3
Last Quarter
Feb 9
New
Feb 17
First Quarter
Feb 25
Full

Hourly Weather History & Observations

Time (AKST) Temp. Windchill Dew Point Humidity Pressure Visibility Wind Dir Wind Speed Gust Speed Precip Events Conditions
12:16 AM 32.0 °F - 26.6 °F 80% 29.68 in 10.0 mi Calm Calm - N/A   Clear
12:36 AM 32.0 °F - 28.4 °F 87% 29.69 in 10.0 mi Calm Calm - N/A   Mostly Cloudy
12:56 AM 32.0 °F 27.5 °F 28.4 °F 87% 29.69 in 10.0 mi ESE 4.6 mph - N/A   Mostly Cloudy
1:16 AM 32.0 °F 27.5 °F 28.4 °F 87% 29.69 in 10.0 mi SE 4.6 mph - N/A   Overcast
1:36 AM 33.8 °F 30.8 °F 28.4 °F 81% 29.70 in 10.0 mi SE 3.5 mph - N/A   Overcast
1:56 AM 33.8 °F 27.0 °F 28.4 °F 81% 29.69 in 10.0 mi East 8.1 mph - N/A   Overcast
2:16 AM 33.8 °F 28.6 °F 28.4 °F 81% 29.70 in 10.0 mi ESE 5.8 mph - N/A   Overcast
2:36 AM 33.8 °F 27.0 °F 28.4 °F 81% 29.71 in 10.0 mi East 8.1 mph - N/A   Overcast
2:56 AM 33.8 °F 27.7 °F 28.4 °F 81% 29.71 in 10.0 mi ESE 6.9 mph - N/A   Overcast
3:16 AM 33.8 °F 27.0 °F 28.4 °F 81% 29.71 in 10.0 mi ESE 8.1 mph - N/A   Overcast
3:36 AM 33.8 °F 28.6 °F 28.4 °F 81% 29.71 in 10.0 mi SE 5.8 mph - N/A   Overcast
3:56 AM 33.8 °F 28.6 °F 28.4 °F 81% 29.71 in 10.0 mi ESE 5.8 mph - N/A   Mostly Cloudy
4:16 AM 33.8 °F 28.6 °F 28.4 °F 81% 29.72 in 10.0 mi SE 5.8 mph - N/A   Mostly Cloudy
4:36 AM 32.0 °F 25.6 °F 28.4 °F 87% 29.71 in 10.0 mi ESE 6.9 mph - N/A   Mostly Cloudy
4:56 AM 32.0 °F 26.4 °F 28.4 °F 87% 29.72 in 10.0 mi ESE 5.8 mph - N/A   Mostly Cloudy
5:16 AM 30.2 °F 24.3 °F 26.6 °F 86% 29.72 in 10.0 mi East 5.8 mph - N/A   Scattered Clouds
5:36 AM 30.2 °F 26.7 °F 26.6 °F 86% 29.73 in 10.0 mi ESE 3.5 mph - N/A   Scattered Clouds
5:56 AM 32.0 °F 28.7 °F 26.6 °F 80% 29.73 in 10.0 mi ESE 3.5 mph - N/A   Overcast
6:16 AM 32.0 °F 27.5 °F 28.4 °F 87% 29.73 in 10.0 mi SE 4.6 mph - N/A   Overcast
6:36 AM 33.8 °F 30.8 °F 28.4 °F 81% 29.73 in 10.0 mi SSE 3.5 mph - N/A   Overcast
6:56 AM 33.8 °F - 26.6 °F 75% 29.73 in 10.0 mi Calm Calm - N/A   Overcast
7:16 AM 32.0 °F - 26.6 °F 80% 29.74 in 10.0 mi Calm Calm - N/A   Overcast
7:36 AM 33.8 °F - 24.8 °F 70% 29.74 in 10.0 mi Calm Calm - N/A   Mostly Cloudy
7:56 AM 33.8 °F - 26.6 °F 75% 29.75 in 10.0 mi Calm Calm - N/A   Scattered Clouds
8:16 AM 33.8 °F - 26.6 °F 75% 29.75 in 10.0 mi Calm Calm - N/A   Mostly Cloudy
8:36 AM 33.8 °F 30.8 °F 24.8 °F 70% 29.75 in 10.0 mi SSW 3.5 mph - N/A   Mostly Cloudy
8:56 AM 30.2 °F - 24.8 °F 80% 29.76 in 10.0 mi Calm Calm - N/A   Clear
9:16 AM 30.2 °F - 24.8 °F 80% 29.77 in 10.0 mi Calm Calm - N/A   Partly Cloudy
9:36 AM 32.0 °F 28.7 °F 26.6 °F 80% 29.78 in 10.0 mi South 3.5 mph - N/A   Scattered Clouds
9:56 AM 33.8 °F 29.6 °F 26.6 °F 75% 29.78 in 10.0 mi SSE 4.6 mph - N/A   Partly Cloudy
10:16 AM 33.8 °F 28.6 °F 26.6 °F 75% 29.79 in 10.0 mi South 5.8 mph - N/A   Clear
10:36 AM 33.8 °F - 24.8 °F 70% 29.79 in 10.0 mi Calm Calm - N/A   Partly Cloudy
10:56 AM 33.8 °F 29.6 °F 24.8 °F 70% 29.79 in 10.0 mi South 4.6 mph - N/A   Partly Cloudy
11:16 AM 35.6 °F 31.7 °F 24.8 °F 65% 29.79 in 10.0 mi South 4.6 mph - N/A   Scattered Clouds
11:36 AM 35.6 °F 29.9 °F 24.8 °F 65% 29.79 in 10.0 mi South 6.9 mph - N/A   Mostly Cloudy
11:56 AM 35.6 °F 30.7 °F 24.8 °F 65% 29.79 in 10.0 mi SW 5.8 mph - N/A   Mostly Cloudy
12:16 PM 35.6 °F 31.7 °F 24.8 °F 65% 29.80 in 10.0 mi South 4.6 mph - N/A   Mostly Cloudy
12:36 PM 35.6 °F 31.7 °F 24.8 °F 65% 29.81 in 10.0 mi WSW 4.6 mph - N/A   Overcast
12:56 PM 33.8 °F 27.0 °F 24.8 °F 70% 29.81 in 10.0 mi WNW 8.1 mph - N/A   Overcast
1:16 PM 33.8 °F 27.0 °F 26.6 °F 75% 29.82 in 8.0 mi NW 8.1 mph - N/A   Overcast
1:36 PM 33.8 °F 28.6 °F 26.6 °F 75% 29.82 in 2.5 mi NNW 5.8 mph - N/A   Mostly Cloudy
1:56 PM 32.0 °F 28.7 °F 26.6 °F 80% 29.82 in 1.8 mi NW 3.5 mph - N/A   Overcast
2:16 PM 32.0 °F - 26.6 °F 80% 29.82 in 10.0 mi Calm Calm - N/A   Mostly Cloudy
2:36 PM 30.2 °F - 26.6 °F 86% 29.82 in 10.0 mi Calm Calm - N/A   Scattered Clouds
2:56 PM 30.2 °F - 26.6 °F 86% 29.82 in 10.0 mi Calm Calm - N/A   Partly Cloudy
3:16 PM 30.2 °F - 26.6 °F 86% 29.82 in 10.0 mi Calm Calm - N/A   Clear
3:36 PM 30.2 °F - 26.6 °F 86% 29.82 in 10.0 mi Calm Calm - N/A   Clear
3:56 PM 30.2 °F 26.7 °F 26.6 °F 86% 29.82 in 10.0 mi SE 3.5 mph - N/A   Mostly Cloudy
4:16 PM 32.0 °F 26.4 °F 26.6 °F 80% 29.83 in 10.0 mi SE 5.8 mph - N/A   Mostly Cloudy
4:36 PM 30.2 °F 24.3 °F 26.6 °F 86% 29.83 in 10.0 mi SE 5.8 mph - N/A   Overcast
4:56 PM 30.2 °F 25.4 °F 26.6 °F 86% 29.83 in 10.0 mi ESE 4.6 mph - N/A   Overcast
5:16 PM 32.0 °F 28.7 °F 26.6 °F 80% 29.83 in 10.0 mi SE 3.5 mph - N/A   Overcast
5:36 PM 32.0 °F 28.7 °F 24.8 °F 75% 29.83 in 10.0 mi ESE 3.5 mph - N/A   Overcast
5:56 PM 30.2 °F 25.4 °F 26.6 °F 86% 29.83 in 10.0 mi SE 4.6 mph - N/A   Overcast
6:16 PM 32.0 °F 25.6 °F 26.6 °F 80% 29.83 in 10.0 mi ESE 6.9 mph - N/A   Mostly Cloudy
6:36 PM 30.2 °F 23.4 °F 26.6 °F 86% 29.83 in 10.0 mi SE 6.9 mph - N/A   Mostly Cloudy
6:56 PM 32.0 °F 24.8 °F 26.6 °F 80% 29.82 in 10.0 mi SE 8.1 mph - N/A   Overcast
7:16 PM 32.0 °F 26.4 °F 26.6 °F 80% 29.82 in 10.0 mi SE 5.8 mph - N/A   Mostly Cloudy
7:36 PM 32.0 °F 28.7 °F 26.6 °F 80% 29.82 in 10.0 mi ESE 3.5 mph - N/A   Mostly Cloudy
7:56 PM 30.2 °F 25.4 °F 26.6 °F 86% 29.82 in 10.0 mi ESE 4.6 mph - N/A   Overcast
8:16 PM 30.2 °F 23.4 °F 26.6 °F 86% 29.82 in 10.0 mi SE 6.9 mph - N/A   Overcast
8:36 PM 30.2 °F 22.6 °F 26.6 °F 86% 29.82 in 10.0 mi SE 8.1 mph - N/A   Overcast
8:56 PM 30.2 °F 24.3 °F 26.6 °F 86% 29.81 in 10.0 mi ESE 5.8 mph - N/A   Mostly Cloudy
9:16 PM 30.2 °F 24.3 °F 26.6 °F 86% 29.81 in 10.0 mi ESE 5.8 mph - N/A   Mostly Cloudy
9:36 PM 30.2 °F 23.4 °F 26.6 °F 86% 29.81 in 10.0 mi SE 6.9 mph - N/A   Scattered Clouds
9:56 PM 30.2 °F 26.7 °F 26.6 °F 86% 29.81 in 10.0 mi SE 3.5 mph - N/A   Mostly Cloudy
10:16 PM 30.2 °F 23.4 °F 26.6 °F 86% 29.80 in 10.0 mi ESE 6.9 mph - N/A   Overcast
10:36 PM 30.2 °F 22.6 °F 26.6 °F 86% 29.79 in 10.0 mi SE 8.1 mph - N/A   Mostly Cloudy
10:56 PM 30.2 °F 23.4 °F 26.6 °F 86% 29.79 in 10.0 mi ESE 6.9 mph - N/A   Mostly Cloudy
11:16 PM 32.0 °F 25.6 °F 26.6 °F 80% 29.78 in 10.0 mi SSE 6.9 mph - N/A   Overcast
11:36 PM 30.2 °F 26.7 °F 26.6 °F 86% 29.78 in 10.0 mi SE 3.5 mph - N/A   Mostly Cloudy
11:56 PM 30.2 °F 25.4 °F 26.6 °F 86% 29.78 in 10.0 mi SE 4.6 mph - N/A   Partly Cloudy